Location: Wald
(31.7579°N, 86.6655°W)
Time: 11:35:36
(UTC+00:00)

Cosmos 2082 Rocket - Pass Details

Date: 14 July 2020
Orbit: 833 x 853 km, 71.0° (Epoch: 09 August)

Event Time Altitude Azimuth Distance (km) Brightness Sun altitude
Exits shadow 09:10:07 16° 280° (W) 2,078 3.9 -18.7°
Maximum altitude 09:11:44 18° 301° (WNW) 1,976 3.9 -18.5°
Drops below altitude 10° 09:15:32 10° 343° (NNW) 2,483 4.9 -17.9°
Sets 09:18:50 0° 2° (N) 3,421 6.0 -17.3°
